Regional Weather Roundup
Issued by NWS

Home | Current Version | Previous Version | Graphics & Text | Print | Product List | Glossary On
Versions: 1 2 3 4 5 6 7 8 9 10 11 12 13 14 15 16 17 18 19 20 21 22 23 24 25 26 27 28 29 30 31 32 33 34 35 36 37 38 39 40 41 42 43 44 45 46 47 48 49 50
000
ASUS45 KBOU 020207
RWRCO

WEATHER ROUNDUP FOR COLORADO
NATIONAL WEATHER SERVICE DENVER/BOULDER CO
800 PM MDT MON SEP 01 2014

NOTE: "FAIR" INDICATES FEW OR NO CLOUDS BELOW 12000 FEET WITH NO
SIGNIFICANT WEATHER AND/OR OBSTRUCTIONS TO VISIBILITY.

COZ001>005-013-030-031-020300-
...NORTHWEST COLORADO...

CITY           SKY/WX    TMP DP  RH WIND       PRES   REMARKS
CRAIG          CLEAR     62  39  42 VRB3      30.13R
HAYDEN         CLEAR     63  34  34 W5        30.16R
MEEKER         CLEAR     64  34  32 NW7       30.14S
MOUNT WERNER   NOT AVBL
STEAMBOAT SPGS CLEAR     60  34  37 CALM      30.18R
WALDEN         PTCLDY    54  34  47 SW8       30.25R
$$

COZ006>008-011-020300-
...WEST CENTRAL VALLEYS...

CITY           SKY/WX    TMP DP  RH WIND       PRES   REMARKS
GRAND JUNCTION CLEAR     73  41  31 NE3       30.00R
MONTROSE       CLEAR     73  38  27 N7        30.11R
EAGLE          PTCLDY    70  30  23 NW6       30.17R
RIFLE          CLEAR     72  34  24 VRB3      30.07R
DELTA          CLEAR     81  31  16 NW5       30.05R
NUCLA          CLEAR     73  32  21 NW6       30.13R
$$

COZ017>023-064>068-020300-
...SOUTHWEST COLORADO...

CITY           SKY/WX    TMP DP  RH WIND       PRES   REMARKS
DURANGO        CLEAR     75  30  19 W8        30.13R
CORTEZ         CLEAR     72  36  26 S7        30.08R
PAGOSA SPRINGS CLEAR     73  25  16 W6        30.21R
TELLURIDE      NOT AVBL
WOLF CREEK PAS CLEAR     50  28  43 SW16G23   30.53R
$$

COZ009-010-012-014-032>034-037-058>063-020300-
...CENTRAL COLORADO...

CITY           SKY/WX    TMP DP  RH WIND       PRES   REMARKS
ASPEN          CLEAR     65  30  27 CALM      30.23R
BUENA VISTA    CLEAR     68  23  18 W12       30.23R
COPPER MTN     CLEAR     50  28  43 W23       30.52R
BERTHOUD PASS  FAIR      37  37 100 NW21      30.54R
COTTONWOOD PAS CLEAR     63  21  20 N6        30.37R
GUNNISON       CLEAR     66  30  26 NW6       30.24R
KREMMLING      CLEAR     63  27  25 NW9       30.23R
LEADVILLE      CLEAR     54  29  38 W8        30.37R
SALIDA         CLEAR     70  29  22 CALM      30.25R
SUNLIGHT       CLEAR     50  36  57 CALM      30.46R
WILKERSON PASS NOT AVBL
$$

COZ069>075-020300-
...SAN LUIS VALLEY/SANGRE DE CRISTO MOUNTAINS...

CITY           SKY/WX    TMP DP  RH WIND       PRES   REMARKS
ALAMOSA        PTCLDY    73  30  20 SW12      30.14R
LA VETA PASS   NOT AVBL
SAGUACHE       NOT AVBL
$$

COZ035-036-038>040-020300-
...NORTHERN COLORADO FRONT RANGE...

CITY           SKY/WX    TMP DP  RH WIND       PRES   REMARKS
DENVER INTL AP PTCLDY    66  44  45 E8        30.05R
DMNS CITY PARK   N/A     70  40  33 NE5       30.05R
AURORA         PTCLDY    65  43  44 E7        30.07R
FRONT RANGE AP NOT AVBL
ERIE MUNI ARPT CLEAR     68  43  40 CALM      30.03R
BOULDER MUN AP CLEAR     70  45  40 CALM      30.05R
CENTENNIAL     PTCLDY    70  46  42 E6        30.07R
BROOMFIELD     PTCLDY    72  41  33 NE6       30.07R
FORT COLLINS   CLEAR     72  46  40 CALM      30.03R
LONGMONT       CLEAR     66  48  52 W3        30.05R
$$

COZ041-046-047-076>085-087-088-020300-
...PIKES PEAK/PALMER DIVIDE AND SOUTHERN FOOTHILLS...

CITY           SKY/WX    TMP DP  RH WIND       PRES   REMARKS
COLO. SPRINGS  PTCLDY    68  45  43 E7        30.11R
A. F. ACADEMY  CLEAR     65  46  49 SW6       30.13R
ELLICOTT       CLEAR     65  43  44 E8        30.09R
FALCON         CLEAR     62  47  56 CALM      30.16R
FORT CARSON    CLEAR     67  46  47 NW5       30.08R
LIMON          PTCLDY    66  44  45 E3        30.05R
MONUMENT HILL  CLEAR     61  45  55 SE7       30.15R
TRINIDAD       CLEAR     77  43  29 CALM      29.97R
$$

COZ042>045-048>051-090-091-020300-
...NORTHEAST COLORADO...

CITY           SKY/WX    TMP DP  RH WIND       PRES   REMARKS
GREELEY ARPT   CLEAR     66  46  48 CALM      30.02R
AKRON          PTCLDY    69  47  45 MISG      30.01R
BURLINGTON     CLEAR     69  47  45 SE9       29.98R
WRAY             N/A     69  51  53 SE8       29.95R
STERLING       PTCLDY    68  54  60 NE6       29.95R
HOLYOKE        CLEAR     64  55  72 SE3       29.95R
FORT MORGAN    PTCLDY    66  47  49 S5        30.00R
$$

COZ086-089-092>099-020300-
...SOUTHEAST COLORADO...

CITY           SKY/WX    TMP DP  RH WIND       PRES   REMARKS
PUEBLO         CLEAR     80  41  24 NE13      29.95R
LA JUNTA       CLEAR     78  47  33 E12       29.92R
LAMAR          CLEAR     75  50  41 E10       29.91R
SPRINGFIELD      N/A     72  54  53 SE10      29.96R
$$


USA.gov is the U.S. government's official web portal to all federal, state and local government web resources and services.